Weather History for Jefferson, NC

Change the Weather History Date:

Sunday, November 20, 2011

  Actual Average Record
Temperature  
Mean Temperature 53 °F -  
Max Temperature 64 °F 53 °F 70 °F (1985)
Min Temperature 42 °F 31 °F 14 °F (1980)
Degree Days  
Heating Degree Days 12    
Growing Degree Days 3 (Base 50)    
Moisture  
Dew Point 47 °F    
Average Humidity 79    
Maximum Humidity 100    
Minimum Humidity 52    
Precipitation  
Precipitation 0.00 in - - ()
Sea Level Pressure  
Sea Level Pressure 30.29 in    
Wind  
Wind Speed 3 mph (SSE)    
Max Wind Speed 10 mph    
Max Gust Speed -    
Visibility 10 miles    
Events Rain    
Averages and records for this station are not official NWS values.
T = Trace of Precipitation, MM = Missing Value Source: NWS Daily Summary

Daily Weather History Graph

Daily Weather History Graph

Search for Another Location

Airport:

Trip Planner

Search our weather history database for the weather conditions in past years. The results will help you decide how hot, cold, wet, or windy it might be!

Date:

Astronomy

Nov. 20, 2011 Rise Set
Actual Time 7:07 AM EST 5:14 PM EST
Civil Twilight 6:40 AM EST 5:42 PM EST
Nautical Twilight 6:08 AM EST 6:13 PM EST
Astronomical Twilight 5:38 AM EST 6:44 PM EST
Moon 1:43 AM EST (11/20) 1:55 PM EST (11/20)
Length of Visible Light 11h 01m
Length of Day
10h 06m
Waning Crescent, 27% of the Moon is Illuminated
Nov 20
Waning Crescent
Nov 25
New
Dec 2
First Quarter
Dec 10
Full
Dec 17
Last Quarter

Hourly Weather History & Observations

Time (EST) Temp. Windchill Dew Point Humidity Pressure Visibility Wind Dir Wind Speed Gust Speed Precip Events Conditions
12:15 AM 42.8 °F 40.1 °F 39.2 °F 87% 30.31 in 10.0 mi SSE 4.6 mph - N/A   Clear
12:35 AM 42.8 °F 39.3 °F 41.0 °F 93% 30.31 in 10.0 mi SE 5.8 mph - N/A   Clear
12:55 AM 42.8 °F 40.1 °F 39.2 °F 87% 30.31 in 10.0 mi SE 4.6 mph - N/A   Clear
1:35 AM 44.6 °F - 41.0 °F 87% 30.29 in 10.0 mi Calm Calm - N/A   Clear
1:55 AM 44.6 °F 41.4 °F 41.0 °F 87% 30.29 in 10.0 mi ESE 5.8 mph - N/A   Clear
2:15 AM 46.4 °F 42.9 °F 41.0 °F 81% 30.29 in 10.0 mi ESE 6.9 mph - N/A   Clear
2:35 AM 46.4 °F - 41.0 °F 81% 30.29 in 10.0 mi Calm Calm - N/A   Clear
2:55 AM 46.4 °F 45.2 °F 41.0 °F 81% 30.29 in 10.0 mi South 3.5 mph - N/A   Clear
3:15 AM 46.4 °F 45.2 °F 41.0 °F 81% 30.29 in 10.0 mi SE 3.5 mph - N/A   Clear
3:55 AM 46.4 °F - 42.8 °F 87% 30.29 in 10.0 mi Calm Calm - N/A   Scattered Clouds
4:15 AM 46.4 °F - 42.8 °F 87% 30.30 in 10.0 mi Calm Calm - N/A   Mostly Cloudy
4:35 AM 48.2 °F - 42.8 °F 82% 30.30 in 10.0 mi Calm Calm - N/A   Overcast
4:55 AM 48.2 °F - 42.8 °F 82% 30.31 in 10.0 mi Calm Calm - N/A   Overcast
5:15 AM 46.4 °F - 42.8 °F 87% 30.30 in 10.0 mi Calm Calm - N/A   Overcast
5:55 AM 46.4 °F - 42.8 °F 87% 30.30 in 10.0 mi Calm Calm - N/A   Scattered Clouds
6:15 AM 46.4 °F - 42.8 °F 87% 30.31 in 10.0 mi Calm Calm - N/A   Mostly Cloudy
6:35 AM 44.6 °F - 41.0 °F 87% 30.31 in 10.0 mi Calm Calm - N/A   Mostly Cloudy
6:55 AM 44.6 °F - 42.8 °F 93% 30.31 in 10.0 mi Calm Calm - N/A   Mostly Cloudy
7:15 AM 44.6 °F 43.1 °F 42.8 °F 93% 30.31 in 10.0 mi NNW 3.5 mph - N/A   Scattered Clouds
7:55 AM 44.6 °F - 42.8 °F 93% 30.32 in 10.0 mi Calm Calm - N/A   Scattered Clouds
8:35 AM 50.0 °F - 44.6 °F 82% 30.32 in 10.0 mi Calm Calm - N/A   Scattered Clouds
8:55 AM 50.0 °F - 44.6 °F 82% 30.32 in 10.0 mi Calm Calm - N/A   Clear
9:15 AM 51.8 °F - 44.6 °F 76% 30.33 in 10.0 mi Calm Calm - N/A   Clear
9:55 AM 55.4 °F - 46.4 °F 72% 30.33 in 10.0 mi Calm Calm - N/A   Clear
10:15 AM 59.0 °F - 46.4 °F 63% 30.33 in 10.0 mi South 3.5 mph - N/A   Clear
10:35 AM 60.8 °F - 46.4 °F 59% 30.33 in 10.0 mi Calm Calm - N/A   Clear
10:55 AM 62.6 °F - 46.4 °F 55% 30.33 in 10.0 mi South 3.5 mph - N/A   Clear
11:15 AM 62.6 °F - 46.4 °F 55% 30.32 in 10.0 mi South 4.6 mph - N/A   Clear
11:35 AM 64.4 °F - 46.4 °F 52% 30.32 in 10.0 mi SSE 4.6 mph - N/A   Clear
11:55 AM 64.4 °F - 46.4 °F 52% 30.31 in 10.0 mi SE 5.8 mph - N/A   Clear
12:15 PM 64.4 °F - 46.4 °F 52% 30.30 in 10.0 mi SSE 6.9 mph - N/A   Clear
12:35 PM 62.6 °F - 46.4 °F 55% 30.29 in 10.0 mi SE 8.1 mph - N/A   Clear
12:55 PM 62.6 °F - 48.2 °F 59% 30.29 in 10.0 mi ESE 8.1 mph - N/A   Clear
1:15 PM 62.6 °F - 48.2 °F 59% 30.27 in 10.0 mi ESE 10.4 mph - N/A   Clear
1:35 PM 62.6 °F - 48.2 °F 59% 30.27 in 10.0 mi SSE 6.9 mph - N/A   Clear
1:55 PM 62.6 °F - 48.2 °F 59% 30.27 in 10.0 mi SSE 5.8 mph - N/A   Scattered Clouds
2:15 PM 62.6 °F - 48.2 °F 59% 30.26 in 10.0 mi SSE 5.8 mph - N/A   Scattered Clouds
2:35 PM 60.8 °F - 50.0 °F 68% 30.26 in 10.0 mi SE 6.9 mph - N/A   Clear
3:15 PM 60.8 °F - 50.0 °F 68% 30.26 in 10.0 mi SE 5.8 mph - N/A   Clear
3:35 PM 60.8 °F - 50.0 °F 68% 30.26 in 10.0 mi SSE 4.6 mph - N/A   Scattered Clouds
3:55 PM 59.0 °F - 50.0 °F 72% 30.26 in 10.0 mi SSE 3.5 mph - N/A   Scattered Clouds
4:15 PM 59.0 °F - 50.0 °F 72% 30.26 in 10.0 mi SSE 3.5 mph - N/A   Clear
4:55 PM 57.2 °F - 50.0 °F 77% 30.27 in 10.0 mi Calm Calm - N/A   Scattered Clouds
5:15 PM 55.4 °F - 50.0 °F 82% 30.27 in 10.0 mi SSE 4.6 mph - N/A   Scattered Clouds
5:35 PM 55.4 °F - 51.8 °F 88% 30.27 in 10.0 mi South 4.6 mph - N/A   Scattered Clouds
5:55 PM 55.4 °F - 51.8 °F 88% 30.27 in 10.0 mi SSE 3.5 mph - N/A   Clear
6:15 PM 55.4 °F - 51.8 °F 88% 30.28 in 10.0 mi Calm Calm - N/A   Scattered Clouds
6:35 PM 55.4 °F - 51.8 °F 88% 30.28 in 10.0 mi Calm Calm - N/A   Mostly Cloudy
6:55 PM 55.4 °F - 51.8 °F 88% 30.27 in 10.0 mi SSE 3.5 mph - N/A   Overcast
7:15 PM 55.4 °F - 51.8 °F 88% 30.27 in 10.0 mi South 3.5 mph - N/A Rain Light Rain
7:35 PM 55.4 °F - 51.8 °F 88% 30.27 in 10.0 mi Calm Calm - N/A   Overcast
7:55 PM 53.6 °F - 51.8 °F 94% 30.27 in 10.0 mi Calm Calm - N/A   Overcast
8:15 PM 53.6 °F - 51.8 °F 94% 30.27 in 10.0 mi Calm Calm - N/A   Scattered Clouds
8:35 PM 53.6 °F - 51.8 °F 94% 30.26 in 10.0 mi Calm Calm - N/A   Scattered Clouds
8:55 PM 53.6 °F - 51.8 °F 94% 30.26 in 10.0 mi Calm Calm - N/A   Scattered Clouds
9:15 PM 53.6 °F - 51.8 °F 94% 30.25 in 5.0 mi Calm Calm - N/A   Clear
9:35 PM 51.8 °F - 51.8 °F 100% 30.25 in 5.0 mi Calm Calm - N/A   Clear
9:55 PM 51.8 °F - 51.8 °F 100% 30.25 in 5.0 mi Calm Calm - N/A   Clear
10:15 PM 53.6 °F - 51.8 °F 94% 30.25 in 10.0 mi Calm Calm - N/A   Clear
10:35 PM 53.6 °F - 51.8 °F 94% 30.24 in 10.0 mi Calm Calm - N/A   Scattered Clouds
10:55 PM 53.6 °F - 51.8 °F 94% 30.24 in 10.0 mi Calm Calm - N/A   Scattered Clouds
11:15 PM 53.6 °F - 50.0 °F 88% 30.24 in 10.0 mi Calm Calm - N/A   Scattered Clouds
11:35 PM 53.6 °F - 51.8 °F 94% 30.25 in 1.0 mi Calm Calm - N/A   Mostly Cloudy
11:55 PM 59.0 °F - 48.2 °F 67% 30.25 in 10.0 mi WNW 12.7 mph 17.3 mph N/A   Scattered Clouds